Weather in Kingiseppskiy

Russia / Saint-Petersburg and Leningrad Oblast     59°24′03″N   28°33′52″E
temp.,
°C
wind,
m/s
gust,
m/s
humid.,
%
clouds,
%
prec.,
mm/h
press.,
hPa
HPBL,
m
18 april, sun
sun1800:00+6ne3116913 0.0 1029302
03:00+4ne39825 0.0 1029227
06:00+3ne39885 0.0 1029221
09:00+8ene48601 0.0 1029494
12:00+13ene46410 0.0 10281255
15:00+14ene46363 0.0 10281697
18:00+13ene46445 0.0 10281554
21:00+8ne411605 0.0 1029416
19 april, mon
mon1900:00+6ene310755 0.0 1029281
03:00+5ene278649 0.0 1030169
06:00+4ene279290 0.0 1030167
09:00+8ene366896 0.0 1030536
12:00+11e454749 0.0 10291155
15:00+13ene45385 0.0 10281576
18:00+12ene45385 0.0 10271543
21:00+7ene410540 0.0 1028372
20 april, tue
tue2000:00+4ene28670 0.0 1027182
03:00+3e28700 0.0 1027163
06:00+2e28680 0.0 1026184
09:00+7ese36520 0.0 1025541
12:00+10e45404 0.0 10231698
15:00+11ese4533100 0.0 10211913
18:00+9ese3539100 0.0 10191686
21:00+6ene2557100 0.0 101899
21 april, wed
wed2100:00+4ese28835 0.0 1016211
03:00+2ne229596 0.0 101430
06:00+4ne2684100 0.0 1012321
09:00+5nne3575100 0.0 1008584
12:00+4n3695100 0.9 1006575
15:00+3nne2598100 3.2 1005361
18:00+2n2599100 1.1 1005260
21:00+2nw3697100 1.3 1005460
22 april, thu
thu2200:00+2wnw3696100 0.1 1006416
03:00+2w2598100 0.1 1007285
06:00+2sw2697100 0.0 1008266
09:00+5sw3580100 0.0 1009384
12:00+9sw356148 0.0 1011876
15:00+12wsw364673 0.0 10121945
18:00+12wsw355392 0.1 10131408
21:00+7n117974 0.1 101312